Location: Newark
(27.9675°N, 86.8869°E)
Time: 18:22:54
(UTC+00:00)

deb Explorer IX - Pass Details

Date: 28 October 2019
Orbit: 546 x 1105 km, 38.8° (Epoch: 17 November)

Event Time Altitude Azimuth Distance (km) Brightness Sun altitude
Rises 10:31:23 0° 292° (WNW) 3,306 ? 11.8°
Reaches altitude 10° 10:33:50 10° 286° (WNW) 2,460 ? 11.3°
Maximum altitude 10:39:26 44° 215° (SW) 1,266 ? 10.2°
Drops below altitude 10° 10:45:49 10° 146° (SE) 2,806 ? 8.9°
Sets 10:48:47 0° 140° (SE) 3,817 ? 8.2°
